sat.trackr.live / text

‹ back to catalog

STARLINK-11245 [DTC]

NORAD 60925 · 2024-155B

PAYLOAD ACTIVE UNKNOWN

§ Identity

Operator
Country
US
Launch date
2024-08-31
Launch site
AFWTR
Launch vehicle
Mass (kg)
RCS (m²)

Purposes: comms

External: N2YO · Heavens-Above · Gunter

§ Orbital elements

Epoch: 2026-05-24T16:07:11.361792Z

Period
91.74 min
Inclination
53.1580°
Eccentricity
0.0000687
Mean motion
15.69708928 rev/d
Perigee alt
359.3 km
Apogee alt
360.2 km
Semi-major
6,737.9 km
B*
1.2789e-5
RAAN
326.8777°
Arg perigee
91.1628°
Mean anomaly
268.9468°
Rev number
10,033

§ Raw data

STARLINK-11245 [DTC]1 60925U 24155B   26144.67165928  .00000962  00000+0  12789-4 0  99972 60925  53.1580 326.8777 0000687  91.1628 268.9468 15.69708928100339

JSON: /api/v1/satellites/60925 · /tle

For live sub-satellite position, see the globe view (requires WebGL).

§ Visibility from observer

Set your observer location to see the next 7 days of passes ≥ 10°. The values pass through the URL so the page stays shareable.

No JS? Fill the form by hand. The geolocation button needs JavaScript.